Assumption Island Airport

Jump to: basic info | weather | runways | comments

Related pages: nearby airports | nearby navaids | notams | map

Basic information (top)

Codes: FSAS
Location: lon -9.742220, lat 46.506802, elev 10 ft / 3 m msl
Status: small_airport

Weather (top)

Current conditions for Prince Said Ibrahim International Airport 219nm (406km) WSW (rec'd 2015/03/28 04:00Z):

FMCH 280400Z 12003KT 070V150 9999 FEW020 24/23 Q1013 NOSIG

Airport forecast for Prince Said Ibrahim International Airport 219nm (406km) WSW (rec'd 2015/03/28 18:30Z):

TAF FMCH 280327Z 2718/2824 15008KT 9999 FEW020 
      BECMG 2806/2808 20010KT PROB30 
      TEMPO 2812/2816 SHRA FEW020CB BKN030 
      BECMG 2816/2818 10004KT

Runways (top)

13/31: 3,963 x 75 ft (1,208 x 23 m) — paved — not lighted

Latest comments (top)

No comments yet for Assumption Island Airport

More... (top)

See also NOTAMs and nearby airports and navaids, or visit the Assumption Island Airport page at the main OurAirports website..